Overview Statistics Trail Chart Weather Telemetry Raw packets
 

This is the latest recevied weather packets stored in our database for station/object VU2EXP-13. If no packets are shown the sender has not sent any weather packets the latest 10 day(s).

<< 21 22 23 24 25 26 27 >>
Time Temp. Humidity Pressure Rain* Wind** Luminosity Snow
1787820637 35° C 46% 990 hPa - - - -
1787819737 33.33° C 50% 990.2 hPa - - - -
1787818837 33.33° C 50% 990.5 hPa - - - -
1787817937 31.67° C 54% 990.9 hPa - - - -
1787817036 33.33° C 51% 991.1 hPa - - - -
1787816137 32.78° C 52% 991.2 hPa - - - -
1787815237 32.22° C 53% 991.5 hPa - - - -
1787814337 32.78° C 52% 991.8 hPa - - - -
1787813436 31.67° C 53% 991.9 hPa - - - -
1787812536 31.67° C 54% 992 hPa - - - -
1787811636 31.67° C 54% 992.2 hPa - - - -
1787810736 31.67° C 54% 992.3 hPa - - - -
1787809836 31.11° C 55% 992.3 hPa - - - -
1787808936 31.11° C 55% 992.3 hPa - - - -
1787808035 31.67° C 55% 992.2 hPa - - - -
1787807135 30.56° C 56% 992.3 hPa - - - -
1787806235 30.56° C 59% 992.3 hPa - - - -
1787805335 30.56° C 60% 992.4 hPa - - - -
1787804435 30.56° C 61% 992.5 hPa - - - -
1787803535 29.44° C 63% 992.5 hPa - - - -
1787802634 29.44° C 64% 992.6 hPa - - - -
1787801735 29.44° C 65% 992.5 hPa - - - -
1787800834 29.44° C 66% 992.4 hPa - - - -
1787799934 28.89° C 67% 992.3 hPa - - - -
1787799034 28.89° C 69% 992.3 hPa - - - -

* Rain since midnight (hover to see other rain measurements)
** Current wind speed in m/s (hover to see current wind gust speed)